Regional Weather Roundup
Issued by NWS

Home | Current Version | Previous Version | Graphics & Text | Print | Product List | Glossary On
Versions: 1 2 3 4 5 6 7 8 9 10 11 12 13 14 15 16 17 18 19 20 21 22 23 24 25 26 27 28 29 30 31 32 33 34 35 36 37 38 39 40 41 42 43 44 45 46 47 48 49 50
076
ASUS44 KJAN 280203
RWRMS

MISSISSIPPI HOURLY WEATHER ROUNDUP
NATIONAL WEATHER SERVICE JACKSON MS
900 PM CDT FRI MAR 27 2015

NOTE: "FAIR: INDICATES FEW OR NO CLOUDS BELOW 12,000 FEET WITH NO
SIGNIFICANT WEATHER AND/OR OBSTRUCTIONS TO VISIBILITY.

MSZ001>002-007>008-010>013-018>021-025>028-034>036-280300-
NORTHWEST MISSISSIPPI

CITY           SKY/WX    TMP DP  RH WIND       PRES   REMARKS
CLARKSDALE     FAIR      43  37  81 N5        30.17R
CLEVELAND      FAIR      44  40  83 CALM      30.16R
GREENWOOD      CLEAR     43  34  70 NE3       30.16R
GREENVILLE     PTCLDY    47  38  71 NE7       30.15R
OLIVE BRANCH   PTCLDY    37  32  81 NE6       30.17R WCI  33
OXFORD         FAIR      37  32  81 N5        30.16R WCI  34
TUNICA         CLEAR     41  34  75 N3        30.17R
$$

MSZ003>006-009-014>017-022>024-029>033-037>039-280300-
NORTHEAST MISSISSIPPI

CITY           SKY/WX    TMP DP  RH WIND       PRES   REMARKS
COLUMBUS AFB   PTCLDY    42  35  76 W7        30.13R
CORINTH        FAIR      39  28  65 N8        30.14R WCI  34
GOLDN TRIANGLE PTCLDY    43  37  81 NW6       30.13R
STARKVILLE     FAIR      41  37  87 NW3       30.14R
TUPELO         CLEAR     42  31  64 N8        30.14R
$$

MSZ040-058-280300-
CENTRAL MISSISSIPPI

CITY           SKY/WX    TMP DP  RH WIND       PRES   REMARKS
JACKSON INTL   CLEAR     50  37  61 N12       30.13R
JACKSON HAWKNS CLEAR     50  37  61 N6        30.14R
MERIDIAN KEY   CLEAR     48  34  58 N8        30.11R
MERIDIAN NAS   NOT AVBL
RAYMOND        FAIR      50  45  81 N7        30.14R
VICKSBURG      LGT RAIN  51  39  63 N10       30.14R
$$

MSZ059>079-280300-
SOUTH MISSISSIPPI

CITY           SKY/WX    TMP DP  RH WIND       PRES   REMARKS
BROOKHAVEN     FAIR      52  39  62 N6        30.13R
HATTIESBURG    MOCLDY    57  35  43 N8        30.11R
MCCOMB         CLEAR     55  37  50 N8        30.10R
NATCHEZ        CLEAR     54  37  54 NE6       30.13R
PINE BELT      CLEAR     52  34  50 N6        30.11R
$$

MSZ080>082-280300-
COASTAL MISSISSIPPI

CITY           SKY/WX    TMP DP  RH WIND       PRES   REMARKS
BAY ST LOUIS   CLEAR     54  37  54 CALM      30.07R
BILOXI         CLEAR     58  37  45 NE10      30.07R
PASCAGOULA     CLEAR     57  35  43 N8        30.07R
GULFPORT       CLEAR     59  35  40 N8        30.07R
$$



USA.gov is the U.S. government's official web portal to all federal, state and local government web resources and services.